Location: Quaker Farms
(41.4276°N, 73.1557°W)
Time: 17:18:11
(UTC+00:00)

A-11 Canister half - Visible Passes

Search period start: 18 June 2021 00:00
Search period end: 28 June 2021 00:00
Orbit: 1527 x 1681 km, 47.3° (Epoch: 17 June)

Date Brightness Start Highest point End Pass type
(mag) Time Alt. Az. Time Alt. Az. Time Alt. Az.
18 Jun 9.6 02:08:45 10° S 02:16:14 27° SE 02:23:35 10° ENE visible
18 Jun 8.8 04:10:48 10° SW 04:20:12 78° SSE 04:29:30 10° ENE visible
18 Jun 9.3 06:16:19 10° W 06:25:36 64° N 06:34:52 10° ENE visible
18 Jun 9.3 08:22:12 10° WNW 08:31:31 71° NNE 08:40:57 10° E visible
19 Jun 9.7 01:47:22 10° S 01:54:39 25° SE 02:01:49 10° ENE visible
19 Jun 8.8 03:49:09 10° SW 03:58:34 75° SSE 04:07:51 10° ENE visible
19 Jun 9.3 05:54:36 10° W 06:03:54 64° N 06:13:11 10° ENE visible
19 Jun 9.3 08:00:32 10° WNW 08:09:50 69° NNE 08:19:14 10° E visible
20 Jun 9.8 01:26:00 10° S 01:33:04 24° SE 01:40:02 10° E visible
20 Jun 8.8 03:27:31 10° SW 03:36:55 73° SSE 03:46:11 10° ENE visible
20 Jun 9.3 05:32:54 10° W 05:42:12 65° N 05:51:29 10° ENE visible
20 Jun 9.3 07:38:50 10° WNW 07:48:09 68° NNE 07:57:31 10° E visible
21 Jun 9.8 01:04:39 10° S 01:11:29 23° SE 01:18:13 10° E visible
21 Jun 8.8 03:05:54 10° SW 03:15:17 70° SE 03:24:32 10° ENE visible
21 Jun 9.3 05:11:11 10° W 05:20:31 66° NNW 05:29:48 10° ENE visible
21 Jun 9.3 07:17:10 10° WNW 07:26:28 67° NNE 07:35:48 10° E visible
22 Jun 8.9 02:44:16 10° SW 02:53:39 67° SE 03:02:52 10° ENE visible
22 Jun 9.2 04:49:28 10° W 04:58:49 67° NNW 05:08:07 10° ENE visible
22 Jun 9.3 06:55:29 10° WNW 07:04:47 66° NNE 07:14:05 10° E visible
23 Jun 8.9 02:22:39 10° SW 02:32:01 65° SE 02:41:12 10° ENE visible
23 Jun 9.2 04:27:45 10° W 04:37:08 68° NNW 04:46:26 10° ENE visible
23 Jun 9.3 06:33:48 10° WNW 06:43:05 65° N 06:52:23 10° E visible
23 Jun 9.0 08:39:06 10° WNW 08:48:22 72° SSW 08:57:44 10° SE visible
24 Jun 8.9 02:01:03 10° SW 02:10:23 62° SE 02:19:33 10° ENE visible
24 Jun 9.2 04:06:02 10° W 04:15:27 69° NNW 04:24:46 10° ENE visible
24 Jun 9.3 06:12:06 10° WNW 06:21:24 64° N 06:30:40 10° E visible
24 Jun 8.9 08:17:26 10° WNW 08:26:43 75° SSW 08:36:06 10° SE visible
25 Jun 9.0 01:39:26 10° SW 01:48:46 60° SE 01:57:53 10° ENE visible
25 Jun 9.2 03:44:19 10° W 03:53:47 70° NNW 04:03:05 10° ENE visible
25 Jun 9.3 05:50:24 10° WNW 05:59:42 64° N 06:08:57 10° E visible
25 Jun 8.9 07:55:47 10° WNW 08:05:05 78° SSW 08:14:27 10° SE visible
26 Jun 9.0 01:17:50 10° SW 01:27:08 57° SE 01:36:13 10° ENE visible
26 Jun 9.2 03:22:36 10° WSW 03:32:05 72° NNW 03:41:25 10° ENE visible
26 Jun 9.4 05:28:42 10° WNW 05:38:00 63° N 05:47:15 10° E visible
26 Jun 8.9 07:34:07 10° WNW 07:43:27 80° SSW 07:52:49 10° SE visible
27 Jun 9.1 00:56:15 10° SW 01:05:31 55° SE 01:14:33 10° ENE visible
27 Jun 9.2 03:00:53 10° WSW 03:10:24 73° NNW 03:19:45 10° ENE visible
27 Jun 9.4 05:07:00 10° WNW 05:16:19 62° N 05:25:33 10° E visible
27 Jun 8.9 07:12:27 10° WNW 07:21:48 83° SSW 07:31:10 10° SE visible
